Walhalla, ND

11:36 PM CDT on March 28, 2017 (GMT -0500)
Walhalla

Weather History for K96D - December, 2013

Change the Weather History Date:

Sunday, December 15, 2013

  Actual Average (KGAF) Record (KGAF)
Temperature  
Mean Temperature -12 °F -  
Max Temperature 0 °F 22 °F 40 °F (1959)
Min Temperature -23 °F 5 °F -22 °F (2013)
Degree Days  
Heating Degree Days 78    
Moisture  
Dew Point -17 °F    
Average Humidity 75    
Maximum Humidity 84    
Minimum Humidity 65    
Precipitation  
Precipitation 0.00 in - - ()
Sea Level Pressure  
Sea Level Pressure 30.12 in    
Wind  
Wind Speed 6 mph (SSE)    
Max Wind Speed 17 mph    
Max Gust Speed 22 mph    
Visibility 10 miles    
Events Snow    
Averages and records for this station are not official NWS values.
T = Trace of Precipitation, MM = Missing Value Source: NWS Daily Summary

Daily Weather History Graph

Daily Weather History Graph

Search for Another Location

Airport or City:

Trip Planner

Search our weather history database for the weather conditions in past years. The results will help you decide how hot, cold, wet, or windy it might be!

Date:

Astronomy

Dec. 15, 2013 Rise Set
Actual Time 8:19 AM CST 4:34 PM CST
Civil Twilight 7:41 AM CST 5:12 PM CST
Nautical Twilight 7:01 AM CST 5:52 PM CST
Astronomical Twilight 6:22 AM CST 6:31 PM CST
Moon 3:46 PM CST (12/15) 6:30 AM CST (12/15)
Length of Visible Light 9h 30m
Length of Day
8h 15m
Waxing Gibbous, 98% of the Moon is Illuminated
Dec 15
Waxing Gibbous
Dec 17
Full
Dec 25
Last Quarter
Jan 1
New
Jan 7
First Quarter

Hourly Weather History & Observations

Time (CST) Temp. Windchill Dew Point Humidity Pressure Visibility Wind Dir Wind Speed Gust Speed Precip Events Conditions
12:15 AM -9.4 °F -25.6 °F -14.8 °F 77% 30.24 in 10.0 mi North 8.1 mph - N/A   Overcast
12:35 AM -11.2 °F -24.8 °F -16.6 °F 77% 30.24 in 10.0 mi North 5.8 mph - N/A   Overcast
12:55 AM -11.2 °F -24.8 °F -16.6 °F 77% 30.24 in 10.0 mi North 5.8 mph - N/A   Overcast
1:15 AM -13.0 °F -28.6 °F -16.6 °F 84% 30.24 in 10.0 mi North 6.9 mph - N/A   Mostly Cloudy
1:35 AM -13.0 °F -25.1 °F -16.6 °F 84% 30.24 in 10.0 mi North 4.6 mph - N/A   Mostly Cloudy
1:55 AM -14.8 °F -27.2 °F -20.2 °F 77% 30.24 in 10.0 mi NNW 4.6 mph - N/A   Overcast
2:15 AM -16.6 °F -26.8 °F -20.2 °F 84% 30.24 in 10.0 mi NW 3.5 mph - N/A   Overcast
2:35 AM -16.6 °F -26.8 °F -20.2 °F 84% 30.24 in - NNW 3.5 mph - N/A   Overcast
2:55 AM -16.6 °F - -20.2 °F 84% 30.24 in - Calm Calm - N/A   Overcast
3:15 AM -14.8 °F -24.8 °F -18.4 °F 84% 30.23 in - NW 3.5 mph - N/A   Overcast
3:35 AM -14.8 °F -27.2 °F -18.4 °F 84% 30.24 in 10.0 mi NW 4.6 mph - N/A   Overcast
3:55 AM -14.8 °F -24.8 °F -18.4 °F 84% 30.23 in 10.0 mi NW 3.5 mph - N/A   Mostly Cloudy
4:15 AM -14.8 °F - -20.2 °F 77% 30.22 in - Calm Calm - N/A   Clear
4:35 AM -14.8 °F - -18.4 °F 84% 30.21 in - Calm Calm - N/A   Unknown
4:55 AM -16.6 °F -26.8 °F -22.0 °F 76% 30.21 in - West 3.5 mph - N/A   Unknown
5:15 AM -18.4 °F - -22.0 °F 84% 30.21 in - Calm Calm - N/A   Unknown
5:35 AM -22.0 °F - -25.6 °F 83% 30.21 in 10.0 mi Calm Calm - N/A   Clear
5:55 AM -22.0 °F - -27.4 °F 76% 30.22 in - Calm Calm - N/A   Clear
6:15 AM -22.0 °F - -27.4 °F 76% 30.22 in - Calm Calm - N/A   Clear
6:35 AM -22.0 °F - -27.4 °F 76% 30.22 in - Calm Calm - N/A   Clear
6:55 AM -23.8 °F - -29.2 °F 76% 30.22 in - Calm Calm - N/A   Clear
7:15 AM -23.8 °F - -29.2 °F 76% 30.22 in - Calm Calm - N/A   Clear
7:35 AM -22.0 °F - -27.4 °F 76% 30.22 in - Calm Calm - N/A   Clear
7:55 AM -23.8 °F - -29.2 °F 76% 30.20 in - Calm Calm - N/A   Clear
8:15 AM -22.0 °F - -29.2 °F 69% 30.19 in - Calm Calm - N/A   Clear
8:35 AM -22.0 °F - -29.2 °F 69% 30.20 in - Calm Calm - N/A   Clear
8:55 AM -22.0 °F - -27.4 °F 76% 30.20 in 10.0 mi Calm Calm - N/A   Clear
9:15 AM -20.2 °F - -25.6 °F 76% 30.20 in 10.0 mi Calm Calm - N/A   Partly Cloudy
9:35 AM -18.4 °F - -23.8 °F 76% 30.20 in 9.0 mi Calm Calm - N/A   Mostly Cloudy
9:55 AM -16.6 °F - -22.0 °F 76% 30.20 in 10.0 mi Calm Calm - N/A   Scattered Clouds
10:15 AM -13.0 °F - -18.4 °F 77% 30.20 in 10.0 mi Calm Calm - N/A   Clear
10:35 AM -13.0 °F -22.7 °F -18.4 °F 77% 30.19 in 10.0 mi ESE 3.5 mph - N/A   Clear
10:55 AM - - - N/A% 30.18 in - SE 3.5 mph - N/A   Unknown
11:15 AM -11.2 °F -20.6 °F -16.6 °F 77% 30.17 in - East 3.5 mph - N/A   Clear
11:35 AM -11.2 °F -23.0 °F -14.8 °F 84% 30.17 in - SE 4.6 mph - N/A   Unknown
11:55 AM -9.4 °F -25.6 °F -13.0 °F 84% 30.15 in - SSE 8.1 mph - N/A   Unknown
12:15 PM -9.4 °F -25.6 °F -14.8 °F 77% 30.14 in - SE 8.1 mph - N/A   Mostly Cloudy
12:35 PM -7.6 °F -24.6 °F -13.0 °F 77% 30.13 in - SSE 9.2 mph - N/A   Mostly Cloudy
12:55 PM -7.6 °F -24.6 °F -14.8 °F 71% 30.12 in - South 9.2 mph - N/A   Mostly Cloudy
1:15 PM -7.6 °F -22.1 °F -16.6 °F 65% 30.12 in - South 6.9 mph - N/A   Overcast
1:35 PM -9.4 °F -25.6 °F -16.6 °F 71% 30.11 in - South 8.1 mph - N/A   Overcast
1:55 PM -9.4 °F -27.9 °F -16.6 °F 71% 30.10 in - SSE 10.4 mph - N/A   Overcast
2:15 PM -7.6 °F -23.4 °F -16.6 °F 65% 30.09 in 10.0 mi SSE 8.1 mph - N/A   Overcast
2:35 PM -7.6 °F -23.4 °F -16.6 °F 65% 30.10 in 10.0 mi South 8.1 mph - N/A Snow Light Snow
2:55 PM -7.6 °F -26.6 °F -16.6 °F 65% 30.08 in - SSE 11.5 mph - N/A   Overcast
3:15 PM -7.6 °F -24.6 °F -16.6 °F 65% 30.09 in 10.0 mi SSE 9.2 mph - N/A   Overcast
3:35 PM -7.6 °F -26.6 °F -16.6 °F 65% 30.08 in 10.0 mi SSE 11.5 mph - N/A   Overcast
3:55 PM -7.6 °F -24.6 °F -16.6 °F 65% 30.08 in - SSE 9.2 mph - N/A   Mostly Cloudy
4:15 PM -7.6 °F -25.7 °F -14.8 °F 71% 30.07 in - SSE 10.4 mph - N/A Snow Heavy Snow
4:35 PM -7.6 °F -24.6 °F -14.8 °F 71% 30.07 in - SSE 9.2 mph - N/A Snow Heavy Snow
4:55 PM -7.6 °F -24.6 °F -14.8 °F 71% 30.05 in - SSE 9.2 mph - N/A   Mostly Cloudy
5:15 PM -7.6 °F -27.5 °F -14.8 °F 71% 30.04 in 10.0 mi SSE 12.7 mph 17.3 mph N/A   Overcast
5:35 PM -7.6 °F -28.3 °F -14.8 °F 71% 30.04 in - SSE 13.8 mph - N/A   Overcast
5:55 PM -7.6 °F -28.3 °F -13.0 °F 77% 30.04 in - SSE 13.8 mph - N/A   Overcast
6:15 PM -7.6 °F -28.3 °F -13.0 °F 77% 30.02 in - SSE 13.8 mph - N/A   Overcast
6:35 PM -7.6 °F -26.6 °F -13.0 °F 77% 30.02 in - SSE 11.5 mph - N/A   Overcast
6:55 PM -7.6 °F -27.5 °F -13.0 °F 77% 30.01 in 10.0 mi SSE 12.7 mph - N/A   Overcast
7:15 PM -7.6 °F -29.1 °F -13.0 °F 77% 29.99 in 10.0 mi SSE 15.0 mph - N/A   Overcast
7:35 PM -5.8 °F -25.2 °F -13.0 °F 71% 30.01 in - SSE 12.7 mph - N/A   Overcast
7:55 PM -5.8 °F -25.2 °F - N/A% 29.99 in - SSE 12.7 mph - N/A   Overcast
8:15 PM -4.0 °F -25.2 °F -11.2 °F 71% 29.98 in - South 16.1 mph 21.9 mph N/A   Overcast
8:35 PM -4.0 °F -25.8 °F -11.2 °F 71% 29.96 in - South 17.3 mph - N/A Snow Heavy Snow
8:55 PM -4.0 °F -23.0 °F -11.2 °F 71% 29.96 in - SSE 12.7 mph - N/A Snow Heavy Snow
9:15 PM -4.0 °F -24.5 °F -11.2 °F 71% 29.94 in - SSE 15.0 mph - N/A   Mostly Cloudy
9:35 PM -4.0 °F -24.5 °F -9.4 °F 78% 29.92 in - SSE 15.0 mph - N/A   Overcast
9:55 PM -4.0 °F -24.5 °F -9.4 °F 78% 29.92 in - SSE 15.0 mph - N/A   Overcast
10:15 PM -2.2 °F -22.2 °F -9.4 °F 71% 29.92 in 10.0 mi SSE 15.0 mph - N/A   Overcast
10:35 PM -2.2 °F -23.5 °F -9.4 °F 71% 29.90 in - SSE 17.3 mph - N/A   Overcast
10:55 PM -2.2 °F -22.9 °F -9.4 °F 71% 29.87 in - SSE 16.1 mph - N/A   Overcast
11:15 PM -2.2 °F -18.9 °F -9.4 °F 71% 29.89 in - South 10.4 mph 16.1 mph N/A   Overcast
11:35 PM -2.2 °F -20.7 °F -7.6 °F 78% 29.89 in - South 12.7 mph - N/A   Overcast
11:55 PM -0.4 °F -17.6 °F -7.6 °F 72% 29.87 in - SSE 11.5 mph 19.6 mph N/A   Overcast